662  
ASUS43 KLSX 211607  
RWRMO  
 
WEATHER SUMMARY FOR MISSOURI  
NATIONAL WEATHER SERVICE SPRINGFIELD MO  
1000 AM CST MON JAN 21 2019  
 
NOTE: "FAIR" INDICATES FEW OR NO CLOUDS BELOW 12,000 FEET WITH NO  
SIGNIFICANT WEATHER AND/OR S TO VISIBILITY
.  
CURRENT SKY AND/OR WEATHER CONDITIONS ARE NOT AVAILABLE FOR  
CHILLICOTHE AND FARMINGTON.  
 
MOZ001>031-035>038-043-044-053-054-211700-   
..NORTHERN AND WESTERN MISSOURI
 
 
 
CITY SKY/WX TMP DP RH WIND PRES REMARKS
 
KANSAS CTY INT CLOUDY 19 16 88 SE17 30.15F WCI 4  
KANSAS C DTWN CLOUDY 23 15 71 E12G22 30.19F WCI 12  
LEE'S SUMMIT CLOUDY 21 18 88 SE20G26 30.18F WCI 6  
ST JOSEPH CLOUDY 17 14 88 SE17G28 30.17F WCI 1  
CHILLICOTHE N/A 13 7 77 E10G23 30.29F WCI 0  
KIRKSVILLE CLOUDY 9 5 84 SE14 30.34F WCI -7  
 

 
MOZ066>068-077>081-088>096-101>105-211700-   
..SOUTHWEST MISSOURI
 
 
 
CITY SKY/WX TMP DP RH WIND PRES REMARKS
 
SPRINGFIELD CLOUDY 23 14 68 SE17G32 30.21F WCI 9  
JOPLIN CLOUDY 29 20 69 SE14G30 30.16S WCI 18  
BRANSON CLOUDY 25 18 74 SE18G24 30.28F WCI 11  
 

 
MOZ032>034-039>042-045>050-055>058-069>072-211700-   
..CENTRAL MISSOURI
 
 
 
CITY SKY/WX TMP DP RH WIND PRES REMARKS
 
COLUMBIA CLOUDY 17 11 77 SE14 30.34F WCI 3  
JEFFERSON CITY MOSUNNY 20 13 74 E16 30.38F WCI 6  
ROLLA CLOUDY 20 13 74 SE14G24 30.34F WCI 7  
SEDALIA MOSUNNY 21 16 81 SE17G28 30.27F WCI 7  
WARRENSBURG MOSUNNY 23 19 86 E14G21 30.24F WCI 11  
OSAGE BEACH CLOUDY 23 15 71 SE10G21 30.33S WCI 12  
 

 
MOZ051-052-059>065-211700-   
..EAST CENTRAL MISSOURI
 
 
 
CITY SKY/WX TMP DP RH WIND PRES REMARKS
 
ST LOUIS INTL CLOUDY 18 11 74 SE15 30.48F WCI 4  
SPIRIT OF STL CLOUDY 18 12 77 SE8 30.47F WCI 8  
ST CHARLES CLOUDY 17 11 77 E12 30.49F WCI 4  
 

 
MOZ072>076-082>087-097>100-106>115-211700-   
..SOUTH CENTRAL AND SOUTHEAST MISSOURI
 
 
 
CITY SKY/WX TMP DP RH WIND PRES REMARKS
 
CAPE GIRARDEAU CLOUDY 22 14 71 E10 30.51S WCI 11  
FARMINGTON CLOUDY 19 15 84 SE13 30.44F WCI 6  
POPLAR BLUFF CLOUDY 24 18 77 E8 30.48S WCI 15  
WEST PLAINS CLOUDY 19 16 88 SE13G22 30.37R WCI 6  
 

 
 
 
CLICK HERE TO GO TO PREVIOUS BULLETINS.

The Nexlab MO Page Main Text Page